sat.trackr.live / text

‹ back to catalog

COSMOS 2610

NORAD 68758 · 2026-083F

PAYLOAD ACTIVE UNKNOWN

§ Identity

Operator
Country
CIS
Launch date
2026-04-16
Launch site
PLMSC
Launch vehicle
Mass (kg)
RCS (m²)

External: N2YO · Heavens-Above · Gunter

§ Orbital elements

Epoch: 2026-09-19T21:48:05.152608Z

Period
95.56 min
Inclination
97.8190°
Eccentricity
0.0012000
Mean motion
15.06856821 rev/d
Perigee alt
537.5 km
Apogee alt
554.1 km
Semi-major
6,923.9 km
B*
8.4409e-5
RAAN
42.1948°
Arg perigee
92.9315°
Mean anomaly
267.3285°
Rev number
2,346

§ Raw data

COSMOS 26101 68758U 26083F   26262.90839297  .00001195  00000+0  84409-4 0  99922 68758  97.8190  42.1948 0012000  92.9315 267.3285 15.06856821 23460

JSON: /api/v1/satellites/68758 · /tle

For live sub-satellite position, see the globe view (requires WebGL).

§ Visibility from observer

Set your observer location to see the next 7 days of passes ≥ 10°. The values pass through the URL so the page stays shareable.

No JS? Fill the form by hand. The geolocation button needs JavaScript.